Flag for U.S.A. Weather past 2 weeks in Mansfield, Texas, U.S.A.

Now
82 °F

Partly sunny.


Feels Like: 85 °F
Forecast: 71 / 83 °F
Wind: 9 mph from Southeast

Location: Burleson-Rendon

Current Time: May 27, 2015 at 1:52:57 PM

Latest Report: May 27, 2015 at 12:51 PM


Visibility: 20 mi

Pressure: 30.10 "Hg

Humidity: 58%

Dew point: 66 °F

Location of MansfieldLocation

Historic Weather in Mansfield — Graph

°F

Mansfield temperature yesterday

Maximum temperature yesterday: 84 °F (at 3:50 PM)
Minimum temperature yesterday: 59 °F (at 1:55 AM)
Average temperature yesterday: 69 °F

Past Weeks' High & Low Weather Summary

 TemperatureHumidityPressure
High90 °F (May 18, 3:58 PM)100% (May 13, 11:52 AM)30.30 "Hg (May 13, 11:52 AM)
Low55 °F (May 21, 6:54 AM)37% (May 17, 6:49 PM)29.75 "Hg (May 16, 6:49 PM)
Average70 °F87%30.01 "Hg
* Reported May 12 12:49 PM — May 27 12:51 PM, Mansfield, Weather by CustomWeather, © 2015

Note: Actual official high and low records may vary slightly from our data, if they occured in-between our weather recording intervals... More about our weather records

Advertising

Mansfield weather history for previous 24 hours

 ConditionsComfort  
Time TempWeatherWind HumidityBarometerVisibility
12:51 PM
Wed, May 27
82 °FPartly sunny.9 mph58%30.10 "Hg20 mi
11:53 AM81 °FSunny.8 mph62%30.11 "Hg20 mi
10:52 AM79 °FSunny.8 mph61%30.11 "Hg20 mi
9:51 AM75 °FSunny.9 mph69%30.11 "Hg20 mi
8:50 AM72 °FSunny.7 mph73%30.08 "Hg20 mi
7:51 AM64 °FSunny.No wind94%30.07 "Hg20 mi
6:55 AM63 °FClear.No wind88%30.03 "Hg20 mi
6:15 AM63 °FClear.No wind89%30.02 "Hg7 mi
5:55 AM63 °FClear.No wind87%30.01 "Hg7 mi
5:35 AM63 °FClear.No wind87%30.02 "Hg7 mi
5:15 AM64 °FClear.No wind85%30.00 "Hg7 mi
4:55 AM65 °FClear.No wind82%30.00 "Hg7 mi
4:35 AM65 °FClear.6 mph81%30.00 "Hg7 mi
4:15 AM65 °FClear.8 mph81%30.01 "Hg5 mi
3:55 AM66 °FClear.6 mph80%30.00 "Hg7 mi
3:35 AM66 °FPassing clouds.7 mph80%30.00 "Hg7 mi
3:15 AM67 °FPassing clouds.6 mph80%30.02 "Hg7 mi
2:55 AM67 °FPassing clouds.12 mph78%30.01 "Hg10 mi
2:35 AM67 °FPassing clouds.13 mph78%30.00 "Hg7 mi
2:15 AM67 °FClear.16 mph77%30.00 "Hg7 mi
1:55 AM67 °FClear.16 mph77%29.98 "Hg7 mi
1:35 AM67 °FThundershowers. Passing clouds.15 mph80%29.97 "Hg7 mi
1:15 AM66 °FThunderstorms. Mostly cloudy.21 mph81%29.98 "Hg10 mi
12:55 AM66 °FThunderstorms. Overcast.26 mph84%30.02 "Hg5 mi
12:35 AM65 °FThunderstorms. Overcast.18 mph85%30.07 "Hg7 mi
12:15 AM66 °FThunderstorms. Overcast.17 mph84%30.10 "Hg7 mi
11:55 PM
Tue, May 26
68 °FThunderstorms. Overcast.24 mph75%30.10 "Hg7 mi
11:35 PM69 °FThunderstorms. Mostly cloudy.25 mph73%30.06 "Hg10 mi
11:15 PM71 °FThunderstorms. Overcast.25 mph68%30.03 "Hg7 mi
10:55 PM70 °FThundershowers. Overcast.18 mph78%30.02 "Hg10 mi
10:35 PM73 °FThunderstorms. Overcast.17 mph54%30.02 "Hg3 mi
10:15 PM69 °FStrong thunderstorms. Overcast.6 mph88%30.03 "Hg3 mi
9:55 PM68 °FThunderstorms. Mostly cloudy.10 mph85%30.00 "Hg7 mi
9:35 PM73 °FThundershowers. Overcast.12 mph76%30.00 "Hg7 mi
9:15 PM77 °FThundershowers. Broken clouds.7 mph85%29.98 "Hg5 mi
8:55 PM77 °FRain showers. Broken clouds.6 mph85%29.98 "Hg5 mi
8:35 PM78 °FRain showers. Broken clouds.No wind81%29.97 "Hg5 mi
8:15 PM78 °FThundershowers. Cloudy.6 mph80%29.98 "Hg7 mi
6:50 PM77 °FSunny.7 mph83%29.94 "Hg7 mi
5:54 PM79 °FSunny.5 mph74%29.95 "Hg7 mi
4:48 PM81 °FScattered clouds.8 mph74%29.96 "Hg7 mi
3:50 PM84 °FBroken clouds.13 mph66%29.97 "Hg7 mi
2:56 PM82 °FBroken clouds.9 mph70%29.98 "Hg7 mi
1:49 PM79 °FPartly sunny.No wind79%30.00 "Hg7 mi
Weather by CustomWeather, © 2015

See weather overviewHow to use our weather pages